Overview Statistics Trail Chart Weather Telemetry Raw packets
 

This is the latest recevied weather packets stored in our database for station/object K7MT-WX. If no packets are shown the sender has not sent any weather packets the latest 10 day(s).

<< 19 20 21 22 23 24 25 >>
Time Temp. Humidity Pressure Rain* Wind** Luminosity Snow
1788164284 10° C 61% 1017.3 hPa 0 mm - - -
1788163384 9.44° C 63% 1017.2 hPa 0 mm - - -
1788162484 9.44° C 65% 1017.2 hPa 0 mm - - -
1788161584 8.89° C 66% 1017.4 hPa 0 mm - - -
1788160684 8.89° C 66% 1017.2 hPa 0 mm - - -
1788159784 9.44° C 64% 1017.1 hPa 0 mm - - -
1788158884 9.44° C 64% 1017.1 hPa 0 mm - - -
1788157996 10° C 64% 1017.1 hPa 0 mm - - -
1788157084 10° C 62% 1017.1 hPa 0 mm - - -
1788156184 10.56° C 59% 1017.2 hPa 0 mm - - -
1788155284 10.56° C 62% 1017.3 hPa 0 mm - - -
1788154384 11.11° C 61% 1017.1 hPa 0 mm - - -
1788153484 12.22° C 52% 1016.8 hPa 0 mm - - -
1788152584 12.22° C 53% 1016.6 hPa 0 mm - - -
1788151684 12.78° C 52% 1016.4 hPa 0 mm - - -
1788150784 12.22° C 52% 1016.3 hPa 0 mm - - -
1788149884 12.22° C 54% 1016.2 hPa 0 mm - - -
1788148984 12.22° C 55% 1016 hPa 0 mm - - -
1788148084 12.22° C 54% 1015.8 hPa 0 mm - - -
1788147184 12.78° C 52% 1015.5 hPa 0 mm - - -
1788146284 12.78° C 51% 1015.2 hPa 0 mm - - -
1788145384 13.33° C 50% 1015 hPa 0 mm - - -
1788144499 14.44° C 48% 1014.6 hPa 0 mm - - -
1788143584 15.56° C 43% 1014.3 hPa 0 mm - - -
1788142684 16.67° C 40% 1014.1 hPa 0 mm - - -

* Rain latest hour (hover to see other rain measurements)
** Current wind speed in m/s (hover to see current wind gust speed)